THOR ABLESTAR DEB, 967

Orbit data source: Space-Track

THOR ABLESTAR DEB, 967 is space debris in LEO originally from a launch on Sun, 13 Dec 1964 UTC launched from the Air Force Western Test Range (AFWTR). Debris objects in space refer to the collection of defunct objects orbiting the Earth. Examples of debris include non-operational satellites, rocket bodies, and fragments generated from explosions, collisions, or faulty payload assembly.

Loading next visibility...
Identifier
967, 1964-083F
Orbit
LEO
Last TLE update
14 hours ago
Origin
Manufacturer
Unknown
Mission
Spacecraft
Bus & Motor
Unknown
Mass
Unknown
Launch date (UTC)
1964-12-13 (61 years ago)
Launch vehicle
Unknown
Launch site
Air Force Western Test Range (AFWTR)
Object type
Payload
Rocket body
Debris
Shape & HBR
Unknown
Radar Cross Section
Small (<0.1 m²)

Expand to show TLE details & history

TLE from 14 hours ago
0 THOR ABLESTAR DEB
1 00967U 64083F   25199.36503219  .00000232  00000-0  26507-3 0  9998
2 00967  89.9512 175.4151 0020066 312.4333 205.4895 13.67230420 10366
Epoch: 2025-07-18T08:45Z
TLE epoch observation values (Epoch: 2025-07-18T08:45:38.781Z)
Latitude
22.18819°
Longitude
-72.43383°
Altitude
1,025.698 km
Speed
7.334 km/s
True Right ascension
23h 41m 34s
True Declination
22° 04' 21"
Sunlit
Object was in daylight at epoch
Visualization orbit readout
Latitude
-23.36588°
Longitude
-72.39607°
Altitude
1,022.78 km
Speed
7.337 km/s
Apparent Right ascension
23h 45m 01s
Apparent Declination
-30° 52' 12"
Sunlit
Object is in full shadow
Visualization observer readout
Local Sidereal Time
11:49:34
Azimuth
6.202° NNE
Elevation
-80.907°
Doppler factor
1
Orbital elements
Apogee altitude
1,021.374 km
Perigee altitude
991.737 km
Semi-major axis
7,384.693 km
Eccentricity
0.00201
Inclination
89.9512°
RAAN
175.4151°
Arg. of periapsis
312.4333°
True anomaly
205.39077°
Mean anomaly
205.4895°
Eccentric anomaly
205.44011°
Mean motion
3.42015 °/min
Orbital period
105.26 mins
BSTAR
0.00026507
Loading maneuver chart data...
Loading SW <> Apogee altitude chart data...
|